TimeCST,TemperatureF,Dew PointF,Humidity,Sea Level PressureIn,VisibilityMPH,Wind Direction,Wind SpeedMPH,Gust SpeedMPH,PrecipitationIn,Events,Conditions,WindDirDegrees,DateUTC
12:53 AM,32.0,28.9,88,30.36,10.0,SSE,3.5,-,N/A,,Clear,150,2012-11-29 06:53:00
1:53 AM,35.1,28.9,78,30.36,10.0,SSE,8.1,-,N/A,,Clear,160,2012-11-29 07:53:00
2:53 AM,36.0,27.0,70,30.35,10.0,South,6.9,-,N/A,,Clear,170,2012-11-29 08:53:00
3:53 AM,35.1,26.1,70,30.35,10.0,South,6.9,-,N/A,,Clear,170,2012-11-29 09:53:00
4:53 AM,35.1,26.1,70,30.36,10.0,South,4.6,-,N/A,,Clear,170,2012-11-29 10:53:00
5:53 AM,35.1,26.1,70,30.38,10.0,South,6.9,-,N/A,,Clear,170,2012-11-29 11:53:00
6:53 AM,34.0,25.0,70,30.38,10.0,SSE,6.9,-,N/A,,Clear,160,2012-11-29 12:53:00
7:53 AM,37.9,26.1,62,30.38,10.0,South,9.2,-,N/A,,Clear,170,2012-11-29 13:53:00
8:53 AM,43.0,28.0,56,30.38,10.0,South,10.4,-,N/A,,Clear,180,2012-11-29 14:53:00
9:53 AM,48.9,30.9,50,30.38,10.0,South,8.1,-,N/A,,Clear,180,2012-11-29 15:53:00
10:53 AM,53.1,30.0,41,30.35,10.0,South,10.4,-,N/A,,Clear,190,2012-11-29 16:53:00
11:53 AM,55.9,28.0,34,30.32,10.0,SSW,11.5,-,N/A,,Clear,200,2012-11-29 17:53:00
12:53 PM,57.9,26.1,30,30.29,10.0,SSW,11.5,-,N/A,,Clear,200,2012-11-29 18:53:00
1:53 PM,57.9,25.0,28,30.26,10.0,SSW,12.7,-,N/A,,Clear,200,2012-11-29 19:53:00
2:53 PM,57.9,23.0,26,30.25,10.0,SSW,12.7,-,N/A,,Clear,210,2012-11-29 20:53:00
3:53 PM,57.0,25.0,29,30.24,10.0,South,6.9,-,N/A,,Clear,190,2012-11-29 21:53:00
4:53 PM,52.0,28.0,40,30.25,10.0,SSW,3.5,-,N/A,,Clear,210,2012-11-29 22:53:00
5:53 PM,48.9,27.0,43,30.26,10.0,Calm,Calm,-,N/A,,Clear,0,2012-11-29 23:53:00
6:53 PM,48.0,26.1,42,30.25,10.0,South,4.6,-,N/A,,Clear,180,2012-11-30 00:53:00
7:53 PM,45.0,26.1,48,30.25,10.0,South,6.9,-,N/A,,Clear,170,2012-11-30 01:53:00
8:53 PM,48.0,25.0,41,30.25,10.0,South,9.2,-,N/A,,Clear,170,2012-11-30 02:53:00
9:53 PM,48.0,25.0,41,30.25,10.0,South,10.4,-,N/A,,Clear,170,2012-11-30 03:53:00
10:53 PM,46.9,25.0,42,30.25,10.0,South,10.4,-,N/A,,Clear,170,2012-11-30 04:53:00
11:53 PM,44.1,27.0,51,30.24,10.0,South,9.2,-,N/A,,Clear,170,2012-11-30 05:53:00